Mobridge, SD

9:07 AM CDT on April 21, 2018 (GMT -0500)
Mobridge Municipal

Weather History for KMBG - November, 2014

Change the Weather History Date:

Friday, November 7, 2014

  Actual Average Record
Temperature  
Mean Temperature 53 °F 37 °F  
Max Temperature 67 °F 48 °F 75 °F (2006)
Min Temperature 39 °F 26 °F -2 °F (1991)
Degree Days  
Heating Degree Days 12 28  
Month to date heating degree days 140 185  
Since 1 July heating degree days 778 959  
Cooling Degree Days 0 0  
Month to date cooling degree days 0 0  
Year to date cooling degree days 471 644  
Growing Degree Days 4 (Base 50)    
Moisture  
Dew Point 34 °F    
Average Humidity 54    
Maximum Humidity 70    
Minimum Humidity 37    
Precipitation  
Precipitation T in 0.03 in 0.79 in (1944)
Month to date precipitation 0.03 0.22  
Year to date precipitation 20.62 17.17  
Snow  
Snow 0.00 in - - ()
Month to date snowfall 0.0  
Since 1 July snowfall 0.0  
Snow Depth 0.00 in    
Sea Level Pressure  
Sea Level Pressure 29.86 in    
Wind  
Wind Speed 17 mph (NW)    
Max Wind Speed 40 mph    
Max Gust Speed 52 mph    
Visibility 10 miles    
Events Rain    
T = Trace of Precipitation, MM = Missing Value Source: NWS Daily Summary

Daily Weather History Graph

Daily Weather History Graph

Search for Another Location

Airport or City:

Astronomy

Nov. 07, 2014 Rise Set
Actual Time 7:29 AM CST 5:20 PM CST
Civil Twilight 6:58 AM CST 5:51 PM CST
Nautical Twilight 6:22 AM CST 6:27 PM CST
Astronomical Twilight 5:48 AM CST 7:01 PM CST
Moon 6:13 PM CST (11/7) 8:07 AM CST (11/7)
Length of Visible Light 10h 53m
Length of Day
9h 50m
Full, 99% of the Moon is Illuminated
Nov 7
Full
Nov 14
Last Quarter
Nov 22
New
Nov 29
First Quarter
Dec 6
Full

Hourly Weather History & Observations

Time (CST) Temp. Windchill Dew Point Humidity Pressure Visibility Wind Dir Wind Speed Gust Speed Precip Events Conditions
12:52 AM 48.9 °F - 28.0 °F 44% 29.82 in 10.0 mi SE 13.8 mph - N/A   Clear
1:52 AM 48.0 °F - 30.9 °F 52% 29.78 in 10.0 mi SE 11.5 mph - N/A   Clear
2:52 AM 48.0 °F - 32.0 °F 54% 29.75 in 10.0 mi SSE 10.4 mph - N/A   Overcast
3:52 AM 48.0 °F - 34.0 °F 58% 29.73 in 10.0 mi SSE 9.2 mph - N/A   Clear
4:52 AM 46.9 °F - 34.0 °F 61% 29.71 in 10.0 mi South 10.4 mph - N/A   Clear
5:52 AM 42.1 °F 38.4 °F 32.0 °F 67% 29.70 in 10.0 mi South 5.8 mph - N/A   Clear
6:52 AM 43.0 °F 39.5 °F 33.1 °F 68% 29.72 in 10.0 mi WNW 5.8 mph - N/A   Partly Cloudy
7:52 AM 42.1 °F - 33.1 °F 70% 29.71 in 10.0 mi Calm Calm - N/A   Clear
8:52 AM 48.0 °F - 34.0 °F 58% 29.72 in 10.0 mi NW 9.2 mph - N/A   Scattered Clouds
9:52 AM 50.0 °F - 37.0 °F 61% 29.73 in 10.0 mi North 8.1 mph - 0.00 in Rain Light Rain
10:52 AM 55.0 °F - 39.0 °F 55% 29.73 in 10.0 mi WNW 8.1 mph - 0.00 in   Mostly Cloudy
11:52 AM 66.0 °F - 39.9 °F 38% 29.70 in 10.0 mi NW 18.4 mph - N/A   Clear
12:52 PM 64.9 °F - 39.9 °F 40% 29.72 in 10.0 mi NW 29.9 mph 46.0 mph N/A   Overcast
1:52 PM 59.0 °F - 42.1 °F 53% 29.77 in 10.0 mi NW 34.5 mph 47.2 mph N/A   Overcast
2:52 PM 59.0 °F - 41.0 °F 51% 29.81 in 10.0 mi NW 36.8 mph 48.3 mph N/A   Overcast
3:52 PM 55.9 °F - 39.9 °F 55% 29.87 in 10.0 mi NW 31.1 mph 43.7 mph N/A   Mostly Cloudy
4:52 PM 54.0 °F - 36.0 °F 51% 29.91 in 10.0 mi NNW 32.2 mph 43.7 mph N/A   Clear
5:52 PM 48.0 °F - 34.0 °F 58% 30.02 in 10.0 mi NNW 24.2 mph 39.1 mph N/A   Clear
6:52 PM 43.0 °F 33.1 °F 30.9 °F 62% 30.07 in 10.0 mi NNW 26.5 mph 35.7 mph N/A   Clear
7:52 PM 43.0 °F 35.1 °F 30.9 °F 62% 30.12 in 10.0 mi NNW 17.3 mph 26.5 mph N/A   Overcast
8:52 PM 43.0 °F 35.1 °F 30.0 °F 60% 30.12 in 10.0 mi NNW 17.3 mph 27.6 mph N/A   Overcast
9:52 PM 43.0 °F 36.0 °F 30.9 °F 62% 30.15 in 10.0 mi NNW 13.8 mph - N/A   Overcast
10:52 PM 44.1 °F 36.2 °F 28.0 °F 53% 30.15 in 10.0 mi NW 18.4 mph 26.5 mph N/A   Overcast
11:52 PM 39.9 °F 30.0 °F 25.0 °F 55% 30.17 in 10.0 mi NNW 21.9 mph 31.1 mph N/A   Overcast